Location: Lake Arresoe
(56.0000°N, 12.5000°E)
Time: 08:03:56
(UTC+02:00)

Cosmos 1674 - Pass Details

Date: 29 July 2021
Orbit: 491 x 516 km, 82.5° (Epoch: 19 September)

Event Time Altitude Azimuth Distance (km) Brightness Sun altitude
Rises 03:07:42 0° 352° (N) 2,655 7.3 -11.7°
Reaches altitude 10° 03:09:57 10° 360° (N) 1,763 6.5 -11.5°
Maximum altitude 03:13:37 40° 71° (ENE) 779 4.0 -11.3°
Drops below altitude 10° 03:17:15 10° 142° (SE) 1,747 5.2 -11.0°
Sets 03:19:28 0° 150° (SSE) 2,627 6.0 -10.9°
